Regional Weather Roundup
Issued by NWS Charleston, SC

Current Version | Previous Version | Graphics & Text | Print | Product List | Glossary On
Versions: 1 2 3 4 5 6 7 8 9 10 11 12 13 14 15 16 17 18 19 20 21 22 23 24 25 26 27 28 29 30 31 32 33 34 35 36 37 38 39 40 41 42 43 44 45 46 47 48 49 50
000
ASUS42 KCHS 262213
RWRCHS

REGIONAL WEATHER ROUNDUP
NATIONAL WEATHER SERVICE CHARLESTON SC
600 PM EDT FRI AUG 26 2016

NOTE: "FAIR" INDICATES FEW OR NO CLOUDS BELOW 12,000 FEET WITH NO
SIGNIFICANT WEATHER AND/OR OBSTRUCTIONS TO VISIBILITY.

NOT ALL STATIONS ARE QUALITY CONTROLLED. USE DATA WITH CAUTION...
ESPECIALLY DEWPOINT OBSERVATIONS.

SCZ027-030-031-034>040-042>050-262300-
...SOUTHEAST SOUTH CAROLINA...

CITY           SKY/WX    TMP DP  RH WIND       PRES   REMARKS
N CHARLESTON   MOSUNNY   88  70  55 SE14      30.03S HX  93
WATERFRONT PRK   N/A     86  76  72 E10       30.02F HX  96
MOUNT PLEASANT FAIR      86  73  66 SE7       30.04S HX  93
JOHNS ISLAND   FAIR      86  73  66 E10       30.04S HX  93
PINOPOLIS        N/A     90  73  58 VRB3      29.95F HX  98
MONCKS CORNER  FAIR      88  70  55 SE5       30.03S HX  92
SUMMERVILLE    NOT AVBL
BEAUFORT MCAS  SUNNY     87  72  60 E12       30.03S HX  93
BEAUFORT ARPT  FAIR      86  72  62 E8        30.03S HAZE    HX  92
HILTON HEAD IS SUNNY     90  73  58 NE7G14    30.04F HX  98
WALTERBORO     MOCLDY    91  72  52 SE8       30.03S HX  98
ALLENDALE      FAIR      93  70  46 SE9       30.01S HX  99

...SOUTHERN MIDLANDS AND PEE DEE...

CITY           SKY/WX    TMP DP  RH WIND       PRES   REMARKS
GEORGETOWN     FAIR      84  72  65 E9        30.05S
KINGSTREE      FAIR      91  68  46 E6        30.02S HX  95
ORANGEBURG     MOSUNNY   92  69  47 SE13      30.03S HX  97
BARNWELL       NOT AVBL
AIKEN          FAIR      93  70  46 SE8       30.06R HX  99
MANNING        FAIR      90  73  58 SW7       30.02F HX  98
COLUMBIA       MOSUNNY   95  69  42 SE13      30.01S HX 100
SUMTER         MOSUNNY   94  71  45 SE10      29.99F HX 101
FLORENCE       MOSUNNY   94  70  45 SE6       30.02F HX 100
MYRTLE BEACH   SUNNY     86  68  54 SE12      30.06F
N MYRTLE BEACH SUNNY     85  72  65 SE8       30.04F HX  91

$$

GAZ063-065-086>088-099>101-113>116-118-119-134>141-150-262300-
...SOUTHEAST GEORGIA...

CITY           SKY/WX    TMP DP  RH WIND       PRES   REMARKS
SAVANNAH ARPT  MOSUNNY   88  70  55 E16       30.03S HX  93
HUNTER AAF     SUNNY     86  75  69 E10G20    30.01F HX  95
FORT STEWART   SUNNY     88  70  55 E13       30.00S HX  93
STATESBORO     PTSUNNY   93  72  50 S6        30.01S HX 100
SYLVANIA       NOT AVBL
CLAXTON        FAIR      91  70  50 E8        30.01S HX  96

...CSRA...CENTRAL AND FAR SOUTHEAST GEORGIA...

CITY           SKY/WX    TMP DP  RH WIND       PRES   REMARKS
THOMSON        SUNNY     96  72  46 MISG      30.06S HX 104
AUGUSTA-BUSH   MOSUNNY   94  69  44 SE6       30.00S HX  99
AUGUSTA-DANIEL SUNNY     95  69  42 SE10      30.02S HX 100
SWAINSBORO     FAIR      95  63  34 SE12      30.02S HX  96
VIDALIA        SUNNY     93  72  49 E12       30.01S HX 100
EASTMAN        FAIR      96  45  17 SE9       30.02S HX  92
HAZLEHURST     FAIR      94  67  41 CALM      30.00S HX  97
ALMA           SUNNY     90  67  46 VRB7      30.01S HX  93
WAYCROSS         N/A     93  69  46 SE15G21   30.02R HX  98
JESUP          FAIR      90  72  55 E14       30.03R HX  96
BAXLEY         FAIR      91  73  55 SE6       30.01S HX 100
BRUNSWICK      MOSUNNY   88  73  62 E15       30.03S HX  96
SAINT SIMONS   MOSUNNY   86  68  54 NE10      30.02F

$$

SCZ027-028-034-036>038-045-046-048>050-GAZ119-141-262300-
...LAKE AND SUPPLEMENTAL COASTAL OBSERVATIONS...

STATION/POSITION TIME  TEMP    WIND        PRES    WAVE   SWELL
                       AIR SEA DIR/SP/G            HT/PER HT/PER/DIR
                 (UTC) (F)     (DEG/KT/KT) (MB)    (FT/S) (FT/S/D)
WINYAH BAY       2045   83     110/  7     1017.0
LAKE MURRAY      2100   93     140/  7/ 10 1015.6F
ACE BASIN NERRS  NOT AVBL
FORT PULASKI     2100   84 86   70/ 11/ 13 1017.8F
SAPELO ISLAND    2100   85      60/ 11     1017.0S

$$

ANZ835-935-AMZ111-154-330-350-352-354-370-450-454-472-262300-
...C-MAN AND BUOY OBSERVATIONS...

STATION/POSITION TIME  TEMP    WIND        PRES    WAVE   SWELL
                       AIR SEA DIR/SP/G            HT/PER HT/PER/DIR
                 (UTC) (F)     (DEG/KT/KT) (MB)    (FT/S) (FT/S/D)
BUOY 41004       2150   83 83   60/ 12/ 16 1016.4F   3/ 6   2/120/ 8
BUOY 41008       2150   83 85   70/ 14/ 17 1016.3F   4/ 8   2/110/ 8
FOLLY BEACH CMAN 2200   82      90/  9/ 10 1017.7F
CAPERS NEARSHORE 2108   83 85   90/ 10/ 14 1017.0F
FRIPP NEARSHORE  2108   83 86   90/ 12/ 16 1016.6F


STATION/POSITION TIME  TEMP    WIND        PRES    WAVE   SWELL
                       AIR SEA DIR/SP/G            HT/PER HT/PER/DIR
                 (UTC) (F)     (DEG/KT/KT) (MB)    (FT/S) (FT/S/D)
5E ST. MARYS GA  2101      85                N/A     4/ 8
FRYING PAN BUOY  2100   83 85   70/ 10/ 12 1017.0F
BUOY 41025       2150   85 87   CALM  /  2 1018.1S   2/ 8   2/100/ 8
CAPE LOOKOUT NC  2200   82     120/  5/  6 1017.5F
BUOY 41002       2150   83 84   70/ 17/ 19 1016.0S   6/10   3/120/10
BUOY 41010       NOT AVBL
ST AUGUSTINE FL  2200   82 85   60/ 13/ 14 1016.6F


$$




USA.gov is the U.S. government's official web portal to all federal, state and local government web resources and services.